GFSSGP_850_dewp_114.txt.gz
Dewpoint
-3 -10 -7 -3 -5 -8 -10 -8 -6 -6 -5 -5 -5 -1 -4 -5 -4 -4 -3 7 -2 -3 -3 -5 -3 -4 -4 -1 5 8 10 10 9 11 12 12 11 10 8 9 13 13 11 9 10 10 11 11 11
-1 -10 -4 -5 -8 -10 -12 -9 -5 -6 -5 -5 -5 -4 -5 -6 -4 -0 4 -0 -1 -3 -3 -4 -3 -4 -4 1 6 9 10 9 9 11 12 13 11 10 10 9 10 13 8 12 11 11 11 11 11
-5 -5 -6 -10 -10 -11 -14 -8 -6 -6 -5 -6 -5 -5 -6 -6 -3 -1 1 -3 -2 -4 -4 -4 -4 -4 -2 1 6 9 9 9 10 12 13 12 12 12 10 12 11 11 9 10 10 11 11 10 11
-5 -6 -7 -8 -10 -11 -11 -8 -6 -5 -6 -6 -6 -6 -6 -2 -0 2 -0 -2 -3 -3 -4 -4 -4 -3 -1 2 6 9 9 9 10 12 13 13 12 12 11 11 11 10 10 9 9 9 10 11 12
-5 -6 -9 -9 -12 -13 -9 -6 -4 -6 -6 -6 -7 -6 -6 -3 -4 -5 -3 -1 -2 -2 -4 -3 -2 -1 0 2 6 9 10 9 9 11 12 13 12 10 11 10 12 10 9 8 8 9 11 11 12
-8 -7 -9 -12 -14 -11 -10 -10 -7 -7 -7 -7 -7 -7 -6 -1 -0 1 -1 -1 -0 -0 -3 -1 -0 0 1 2 5 9 9 9 10 11 11 12 12 8 7 7 11 9 6 4 6 9 11 10 10
-7 -8 -10 -12 -13 -10 -11 -11 -8 -7 -7 -7 -6 -5 -6 0 -1 -4 -2 -0 0 1 -0 -1 1 2 3 3 4 9 10 10 10 11 11 12 11 9 9 10 9 7 3 4 6 7 9 9 10
-6 -7 -7 -10 -10 -13 -12 -9 -9 -7 -7 -7 -6 -6 -4 1 -7 -7 -2 1 1 2 2 1 2 3 4 4 4 7 10 10 10 10 10 11 10 9 10 10 6 1 2 -1 0 8 5 9 10
-5 -6 -7 -9 -11 -12 -10 -10 -8 -6 -7 -7 -7 -5 -4 0 -7 -1 0 2 4 4 4 2 3 3 3 5 4 6 10 11 11 10 10 10 10 11 10 8 4 6 4 2 3 4 7 9 10
-6 -6 -7 -11 -12 -12 -11 -10 -10 -8 -7 -7 -7 -5 -5 -2 2 4 7 10 9 8 5 4 4 4 3 4 5 5 12 12 13 12 11 11 11 12 11 7 7 8 4 3 4 7 8 9 11
-5 -4 -7 -9 -10 -11 -11 -10 -11 -9 -10 -9 -7 -7 -6 -4 -1 2 2 5 8 12 10 5 5 5 3 3 4 5 11 11 12 12 12 12 12 12 9 10 8 7 5 9 8 8 9 10 11
-3 -6 -6 -7 -7 -7 -8 -9 -8 -9 -10 -10 -8 -7 -5 -4 -4 -2 -0 2 6 10 13 6 6 5 4 3 5 4 5 9 12 12 12 12 12 11 12 11 11 6 9 8 8 8 10 10 11
-3 -5 -6 -5 -6 -6 -7 -7 -7 -8 -9 -8 -8 -6 -6 -5 -5 -3 -1 1 4 8 10 7 6 5 4 4 6 6 6 8 12 12 12 12 12 11 12 12 11 10 9 9 10 11 10 10 11
-7 -6 -5 -5 -6 -6 -6 -6 -6 -7 -6 -6 -6 -6 -7 -6 -5 -5 -3 1 4 4 5 8 5 6 5 5 6 7 8 8 12 12 11 11 11 11 11 11 11 10 9 10 10 9 10 10 11
-7 -5 -6 -6 -6 -6 -6 -4 -4 -5 -5 -6 -6 -5 -5 -5 -5 -5 -4 -2 2 4 6 6 5 7 6 6 7 9 9 9 10 12 11 11 10 11 11 11 11 11 9 10 10 9 9 10 11
-5 -6 -3 -5 -5 -5 -6 -2 -5 -4 -4 -4 -3 -3 -3 -4 -4 -5 -4 -3 -2 -0 5 9 10 7 6 7 7 9 9 10 10 11 10 10 10 10 10 11 11 10 10 10 9 9 10 9 9
-8 -6 -8 -7 -5 -4 -3 -3 -5 -5 -5 -5 -4 -4 -4 -4 -4 -4 -4 -3 -3 -1 2 9 9 4 6 8 8 9 10 10 10 11 11 10 10 10 10 11 11 10 10 10 9 9 9 9 8
-9 -9 -8 -8 -10 -7 -4 -4 -5 -5 -4 -4 -4 -4 -4 -4 -4 -4 -4 -3 0 -4 -0 9 10 5 7 8 9 10 11 10 8 11 11 10 10 11 11 11 11 10 10 9 9 8 9 9 9
-12 -11 -11 -12 -11 -5 -5 -5 -6 -6 -6 -4 -4 -4 -4 -4 -4 -4 -5 -1 -5 -4 -1 7 10 10 7 8 9 10 10 8 9 10 10 10 10 11 10 10 10 11 10 9 9 9 9 8 9
-11 -11 -11 -13 -14 -8 -8 -9 -10 -10 -8 -6 -5 -5 -6 -7 -6 -7 -6 1 -5 -3 -1 8 10 12 8 9 9 10 9 7 8 9 9 10 10 10 11 11 10 11 10 10 10 9 9 8 9
-12 -11 -12 -11 -12 -12 -9 -8 -9 -11 -11 -11 -10 -10 -10 -9 -8 -4 -3 -1 4 -2 1 8 10 12 9 10 10 11 11 7 8 9 10 10 10 10 11 10 10 10 10 9 8 9 9 9 9
-10 -14 -11 -10 -9 -8 -11 -7 -12 -10 -10 -11 -11 -9 -6 -3 0 0 -1 -1 3 3 5 5 11 12 11 11 11 11 11 9 9 10 10 9 10 10 10 10 10 10 10 10 9 9 9 8 8
-10 -13 -10 -8 -7 -7 -8 -7 -11 -13 -12 -8 -8 -3 1 3 4 5 4 1 2 8 5 3 7 10 11 12 12 11 10 10 10 10 10 9 10 10 11 10 10 10 10 10 10 10 9 8 7
-11 -8 -8 -9 -8 -5 -8 -7 -11 -12 -8 -8 1 3 4 5 5 6 7 4 5 9 4 5 8 11 11 11 11 10 8 6 10 10 9 9 9 10 10 10 10 10 10 10 10 10 8 7 8
-11 -7 -8 -7 -5 -7 -12 -8 -10 -11 -5 -3 2 4 4 5 7 7 7 7 7 10 7 7 12 12 11 11 10 8 6 6 10 9 10 9 9 9 10 10 10 10 9 9 10 10 8 7 8
-11 -9 -9 -8 -8 -8 -8 -5 -8 -10 -7 2 4 4 5 6 8 8 8 9 9 9 8 10 12 11 11 10 9 6 6 9 9 10 9 9 9 9 9 9 10 10 9 10 10 10 9 8 8
-11 -8 -12 -12 -12 -6 -9 -7 -10 -6 -8 2 4 4 6 7 9 9 9 10 10 10 10 10 11 11 11 10 9 9 7 9 10 10 9 10 9 9 10 9 9 9 9 9 10 10 9 9 8
-13 -12 -9 -12 -7 -8 -12 -8 -6 -3 0 3 4 4 6 8 9 10 10 10 10 9 9 9 9 10 10 9 9 9 9 9 9 9 9 9 10 9 9 8 8 9 9 9 8 9 9 9 8
-9 -5 -9 -12 -9 -9 -7 -7 -7 -0 2 4 4 4 6 7 8 9 9 9 9 9 9 9 9 9 10 9 8 8 8 9 9 9 8 10 9 9 9 8 8 9 9 9 9 9 8 7 3
-12 -7 -7 -6 -7 -8 -7 -7 1 0 2 4 4 4 5 6 7 7 8 9 9 9 9 9 9 9 10 9 8 7 9 9 8 8 8 10 9 9 9 8 8 8 9 9 7 -0 -4 -6 -1

GFSSGP_850_dewp_117.txt.gz
Dewpoint
-8 -9 -3 -7 -6 -9 -12 -12 -12 -8 -7 -8 -7 -3 -5 -5 -3 -1 1 5 5 7 -5 -5 -4 -3 -5 -5 -1 5 9 10 10 10 11 12 11 10 9 10 11 12 12 12 11 10 10 10 11
2 -1 -6 -7 -6 -10 -10 -15 -10 -9 -6 -6 -6 -1 -6 -6 -7 -1 3 5 5 7 -5 -5 -3 -3 -4 -4 -2 4 8 9 9 9 11 12 12 11 11 12 12 12 11 9 9 10 11 11 10
1 -4 -8 -9 -9 -10 -13 -14 -12 -9 -6 -5 -6 -5 -7 -7 -6 -2 2 2 4 6 3 -5 -3 -3 -4 -4 -1 4 8 8 8 10 12 13 12 12 14 12 13 12 10 11 9 10 11 11 10
-1 -7 -7 -6 -8 -13 -14 -15 -12 -8 -6 -7 -7 -6 -7 -4 -4 -3 1 2 4 7 9 -3 -4 -3 -3 -2 -1 3 7 8 8 10 13 13 13 13 10 8 12 13 11 10 10 10 11 10 10
-6 -8 -8 -10 -12 -15 -14 -13 -9 -7 -7 -6 -7 -6 -7 -4 -1 -0 0 3 6 8 10 -1 -3 -3 -2 -1 -0 3 7 8 8 11 12 13 13 11 9 11 10 12 12 9 9 9 10 10 11
-8 -10 -8 -9 -12 -14 -15 -14 -9 -6 -8 -7 -7 -7 -6 -4 -1 3 3 6 8 10 9 -3 -3 -2 -1 -1 1 4 8 9 9 10 12 13 12 9 7 8 9 7 11 9 8 6 8 11 12
-7 -9 -8 -10 -11 -13 -15 -13 -13 -9 -9 -8 -7 -6 -7 -1 4 8 6 7 11 13 4 -3 -2 -1 0 -1 -0 5 8 9 10 11 12 12 12 10 7 7 6 10 10 8 6 6 10 10 11
-7 -7 -7 -9 -8 -11 -14 -14 -12 -12 -10 -8 -7 -6 -7 3 4 6 7 9 12 14 10 2 -1 0 1 -0 -2 3 7 10 10 11 12 10 10 10 10 8 9 10 8 6 6 6 10 10 9
-5 -4 -4 -7 -8 -10 -13 -13 -12 -13 -12 -8 -8 -6 -3 0 3 5 8 10 12 14 14 14 8 1 1 1 -1 -0 6 10 10 10 11 11 11 11 10 10 11 7 5 5 6 6 7 10 9
-5 -3 -4 -8 -10 -11 -12 -13 -12 -11 -10 -10 -8 -6 -5 -4 -0 1 5 9 11 13 14 14 14 12 4 1 -0 -1 2 8 10 11 11 12 12 12 10 12 10 6 5 7 6 7 7 8 10
-4 -2 -5 -7 -8 -10 -11 -11 -13 -13 -10 -11 -9 -7 -6 -6 -5 -1 -1 3 8 11 13 14 15 15 12 2 1 1 3 13 13 13 13 12 12 12 12 12 10 6 8 9 7 7 8 10 10
-3 -4 -4 -5 -6 -7 -8 -8 -9 -11 -12 -13 -11 -9 -6 -6 -5 -5 -3 -2 1 7 12 14 14 15 12 5 2 11 8 14 14 13 13 12 12 12 12 12 11 7 8 8 8 9 10 10 10
-5 -6 -5 -5 -5 -6 -6 -7 -6 -7 -9 -10 -11 -11 -8 -7 -6 -5 -5 -3 -1 1 8 13 14 15 10 6 9 10 11 13 13 13 12 12 12 12 12 11 11 10 9 9 8 11 10 10 10
-6 -6 -5 -5 -4 -5 -5 -5 -6 -6 -6 -7 -8 -9 -9 -8 -7 -7 -5 -4 -2 2 6 11 14 14 14 6 4 8 6 6 5 7 11 11 11 11 12 11 11 11 10 9 9 8 9 10 11
-8 -6 -6 -6 -6 -5 -5 -4 -4 -5 -5 -6 -7 -7 -7 -9 -9 -8 -7 -5 -4 0 4 9 13 14 15 9 6 5 11 11 7 7 9 11 11 12 12 12 11 11 11 9 9 10 10 9 10
-10 -6 -3 -6 -6 -6 -5 -2 -5 -5 -5 -5 -5 -5 -6 -6 -7 -8 -7 -6 -5 -4 2 6 10 13 14 14 13 12 8 10 10 9 9 11 11 11 11 12 11 11 10 10 10 10 10 10 10
-13 -12 -10 -8 -10 -7 -4 -3 -6 -6 -6 -5 -4 -4 -4 -4 -4 -5 -6 -6 -5 -4 -2 2 9 12 14 14 14 13 12 10 12 10 9 9 11 11 11 11 11 11 11 10 10 10 9 9 9
-14 -12 -12 -10 -11 -11 -6 -5 -6 -6 -6 -4 -5 -5 -5 -4 -4 -5 -4 -5 -5 -4 -2 2 6 11 13 14 14 13 13 9 10 10 9 7 10 10 10 11 11 11 11 11 10 10 9 8 9
-17 -15 -14 -11 -13 -11 -9 -9 -9 -8 -7 -6 -5 -5 -4 -4 -4 -4 -4 -4 -4 -3 3 5 7 12 13 14 14 13 11 10 10 10 9 7 9 10 10 10 11 11 11 11 10 10 9 9 8
-20 -17 -13 -16 -17 -15 -13 -10 -7 -8 -10 -9 -7 -6 -5 -4 -4 -4 -4 -4 -3 -1 6 6 8 11 13 13 14 12 12 11 12 11 10 6 7 10 10 10 10 10 11 11 10 10 9 8 8
-16 -17 -16 -15 -17 -15 -13 -12 -13 -13 -12 -13 -13 -11 -8 -7 -6 -7 -7 -5 -4 3 6 8 9 10 13 14 13 13 13 13 12 10 8 10 9 10 10 10 10 11 11 10 10 10 9 8 8
-13 -17 -16 -17 -15 -12 -14 -9 -13 -14 -13 -12 -12 -12 -11 -11 -10 -9 -7 -5 -3 1 7 9 9 10 13 12 12 13 12 11 11 11 8 10 10 9 10 10 10 10 11 10 10 10 9 7 8
-17 -17 -13 -14 -13 -11 -13 -14 -14 -14 -12 -11 -11 -12 -10 -6 -2 -1 -1 -1 -1 -1 7 10 10 10 13 12 12 13 12 12 11 11 11 11 10 10 9 10 10 10 11 10 10 10 9 9 8
-13 -14 -13 -10 -10 -6 -10 -12 -14 -14 -12 -10 -8 -7 -3 1 2 2 3 5 2 5 10 12 11 11 12 12 13 12 12 11 10 11 11 11 11 10 11 11 10 10 10 10 10 9 9 9 9
-11 -10 -9 -5 -4 -5 -12 -12 -12 -14 -14 -12 -4 0 2 3 4 4 5 6 4 8 11 11 11 11 12 12 12 12 12 11 11 11 11 11 11 10 10 10 10 10 10 10 10 10 10 9 8
-10 -10 -7 -5 -5 -8 -15 -12 -14 -15 -15 -8 -2 1 3 4 6 6 7 8 8 10 11 11 12 12 12 13 12 12 12 11 11 11 10 10 10 10 9 9 9 10 10 10 10 10 10 10 9
-11 -9 -13 -8 -10 -9 -13 -14 -13 -14 -12 -2 1 2 4 5 7 7 9 9 10 10 10 10 11 11 11 12 12 12 12 11 10 10 10 11 10 9 9 9 9 9 9 10 10 10 10 10 9
-11 -14 -9 -8 -5 -6 -12 -11 -10 -10 -8 -2 -0 2 5 7 8 9 9 10 10 10 9 10 10 11 10 11 11 11 11 11 10 10 11 10 9 10 9 9 10 9 9 9 9 9 9 9 9
-11 -11 -13 -11 -9 -7 -9 -11 -13 -11 -9 -5 -1 3 5 6 7 8 9 9 9 9 9 9 9 10 10 11 11 11 11 10 10 10 10 9 8 9 9 9 9 8 8 8 9 9 9 9 9
-1 -12 -13 -9 -8 -11 -11 -10 -6 -9 -5 -3 3 3 5 6 6 7 8 8 9 9 9 9 9 9 10 10 10 10 10 10 10 10 10 9 9 9 9 9 8 8 8 8 8 8 8 9 9

GFSSGP_850_dewp_120.txt.gz
Dewpoint
-12 -9 -11 -2 -5 -5 -7 -11 -13 -13 -10 -9 -8 -9 -5 -6 -1 3 3 6 6 2 -6 -6 -4 -5 -7 -5 -2 3 6 8 10 11 11 12 11 10 10 9 8 10 11 11 11 11 10 10 10
-9 1 -1 -7 -5 -6 -8 -11 -14 -13 -8 -7 -7 -4 -5 -6 -4 1 5 5 7 -3 -7 -6 -4 -5 -6 -4 -2 3 7 9 10 10 11 12 12 11 12 12 12 12 12 11 11 10 10 10 10
-3 2 -5 -7 -8 -6 -6 -13 -14 -8 -6 -6 -6 -6 -5 -7 -7 -0 4 4 7 2 -6 -5 -4 -3 -5 -5 -3 1 6 9 9 10 11 12 13 12 12 13 12 13 13 11 10 10 9 10 10
-2 1 -7 -7 -6 -9 -12 -12 -14 -9 -7 -7 -7 -6 -7 -5 -5 2 2 3 5 7 -5 -5 -3 -3 -4 -4 -4 -1 4 8 9 10 12 13 12 12 7 8 9 8 12 12 10 10 10 10 10
1 -7 -7 -8 -10 -12 -13 -15 -14 -10 -8 -7 -8 -6 -7 -4 -3 1 2 2 4 7 -0 -4 -4 -3 -2 -4 -3 -2 4 7 9 11 14 13 12 11 7 8 8 8 9 11 11 9 10 10 10
-3 -7 -5 -6 -8 -10 -12 -14 -14 -10 -7 -8 -7 -8 -6 -5 -1 -0 2 3 5 7 4 -1 -3 -2 -2 -3 -3 -2 2 7 9 10 11 12 12 9 8 8 8 8 8 10 10 9 9 10 10
-4 -5 -6 -7 -8 -10 -12 -14 -13 -13 -9 -10 -9 -7 -7 -4 1 2 2 4 8 8 4 2 -3 -2 -1 -1 -3 -3 1 7 9 9 10 10 11 9 8 8 7 8 8 10 9 8 10 11 10
-4 -5 -4 -6 -7 -8 -12 -13 -14 -13 -13 -11 -10 -7 -5 3 4 3 4 8 10 11 5 1 -3 -2 -1 -1 -2 -3 1 6 9 9 9 11 11 10 9 8 8 7 10 8 7 7 11 11 10
-4 -2 -2 -4 -5 -7 -11 -11 -13 -13 -13 -14 -8 -8 -1 3 4 5 6 8 11 13 10 1 0 -2 -1 0 -1 -3 -2 2 8 9 9 11 12 12 8 10 7 9 10 7 8 7 9 9 10
-3 -1 -2 -5 -5 -6 -10 -11 -12 -12 -13 -13 -9 -8 -6 -1 2 4 7 9 12 13 14 10 3 2 0 1 0 -2 -3 -1 4 8 9 11 12 11 11 10 9 11 8 7 7 7 8 9 9
-4 -2 -4 -5 -5 -5 -6 -8 -11 -12 -11 -11 -11 -8 -7 -5 -3 0 4 7 10 12 14 14 10 5 3 2 1 -0 -1 -1 2 8 10 11 12 12 12 11 11 11 8 7 8 6 8 8 9
-4 -4 -4 -4 -4 -5 -5 -6 -8 -10 -11 -12 -12 -11 -8 -7 -6 -4 -2 -0 6 10 12 13 14 12 7 4 3 1 1 2 5 8 11 12 12 12 12 12 11 10 6 7 8 6 6 8 9
-6 -7 -7 -6 -5 -5 -5 -5 -5 -6 -7 -8 -10 -11 -12 -8 -6 -6 -5 -3 -2 6 9 10 13 14 11 3 4 4 6 7 11 12 11 12 12 12 12 12 11 11 7 7 7 7 7 8 9
-12 -10 -8 -7 -6 -6 -5 -4 -5 -5 -6 -6 -7 -7 -10 -11 -8 -7 -6 -5 -4 -2 8 8 10 11 13 9 7 6 14 11 13 13 11 11 12 12 12 11 11 10 10 8 8 8 8 8 9
-11 -8 -9 -10 -8 -6 -6 -4 -3 -5 -5 -5 -6 -6 -7 -8 -10 -9 -7 -5 -5 -4 -1 8 9 11 12 10 10 9 9 12 11 11 10 10 11 11 11 11 11 11 10 10 9 9 9 9 9
-11 -13 -10 -14 -10 -8 -6 -3 -5 -6 -5 -5 -5 -5 -6 -7 -7 -9 -9 -7 -6 -5 -1 3 7 9 13 11 10 9 10 10 7 7 7 8 10 11 11 11 11 11 10 10 9 9 9 9 10
-14 -11 -15 -16 -16 -16 -8 -4 -6 -6 -6 -5 -5 -5 -5 -5 -5 -6 -9 -9 -8 -6 -5 1 5 8 11 13 12 11 9 12 12 9 8 9 11 10 11 12 11 11 11 10 10 9 9 10 9
-14 -14 -13 -12 -15 -12 -11 -8 -8 -6 -6 -5 -5 -5 -5 -4 -4 -5 -5 -6 -7 -7 -6 0 3 6 8 13 14 14 13 13 13 11 9 9 9 9 10 11 11 11 11 11 10 9 9 10 9
-14 -13 -14 -15 -16 -13 -10 -9 -10 -11 -8 -7 -6 -5 -4 -4 -5 -4 -4 -5 -5 -5 -5 -3 3 7 9 12 14 14 13 14 13 14 10 9 9 8 8 10 11 12 11 11 10 10 10 10 10
-16 -15 -13 -16 -18 -16 -14 -14 -11 -12 -11 -8 -7 -7 -5 -5 -4 -4 -4 -4 -4 -4 -3 -2 0 4 9 10 13 14 13 14 14 13 12 11 10 9 8 10 10 11 11 11 11 10 10 10 8
-12 -12 -13 -13 -16 -18 -14 -11 -12 -14 -13 -13 -10 -12 -12 -7 -5 -4 -4 -4 -3 -3 -2 -0 4 4 9 12 15 14 13 13 13 14 13 10 9 9 8 10 10 11 11 11 11 11 10 9 6
-9 -13 -14 -15 -14 -14 -17 -9 -12 -14 -13 -13 -13 -13 -12 -12 -11 -5 -5 -4 -5 -4 -2 -2 3 6 10 12 14 13 13 12 13 13 12 11 9 7 9 9 10 10 11 11 10 11 10 10 6
-8 -10 -12 -14 -13 -11 -14 -14 -14 -15 -13 -14 -14 -12 -12 -12 -11 -10 -9 -9 -5 -3 -2 -1 3 8 10 12 13 13 13 12 13 13 12 11 11 10 9 9 9 9 10 10 9 11 10 10 8
-6 -7 -10 -9 -10 -8 -10 -11 -12 -14 -14 -16 -13 -12 -11 -9 -3 -1 -1 -2 0 2 1 3 7 9 10 10 12 12 12 13 12 12 12 11 11 11 11 9 9 10 10 10 10 10 10 10 9
-5 -2 -5 -3 -4 -6 -10 -10 -10 -12 -15 -15 -9 -1 -0 2 2 2 2 4 3 7 9 11 10 10 11 11 12 12 12 13 12 11 11 11 11 11 11 10 10 10 10 10 10 10 10 10 9
2 -1 -3 -2 -3 -7 -11 -8 -10 -12 -15 -16 -3 1 1 2 4 6 7 7 8 10 11 11 10 10 12 12 12 12 12 12 11 11 11 11 10 11 11 11 10 11 10 10 10 10 10 10 10
1 -3 -8 -5 -6 -4 -9 -11 -12 -14 -15 -15 1 2 2 4 6 8 9 10 10 10 10 11 9 10 12 12 11 12 12 12 11 11 11 11 10 10 10 10 11 11 10 10 9 10 10 10 10
0 -3 -3 -6 -4 -4 -7 -7 -10 -13 -14 -11 1 2 5 7 8 9 10 10 10 10 9 9 9 10 10 11 11 13 12 11 11 11 10 10 10 10 10 9 9 9 9 9 9 10 9 10 10
4 4 -2 -6 -8 -5 -2 -4 -11 -10 -11 -2 1 3 6 7 8 8 9 9 9 9 9 9 9 9 10 10 11 12 11 11 11 10 10 10 10 10 9 9 9 9 9 10 9 9 9 9 10
-3 1 2 -6 -6 -7 -6 -5 -11 -4 -4 -2 -1 3 6 7 7 7 8 8 8 9 9 8 9 9 10 10 11 12 11 11 10 10 9 10 9 9 9 9 9 9 9 8 9 9 9 9 9

GFSSGP_850_dewp_123.txt.gz
Dewpoint
-17 -11 -11 -1 -1 -4 -3 -6 -8 -9 -11 -7 -7 -5 -4 -2 3 7 6 5 5 1 -6 -7 -8 -10 -9 -5 -3 0 6 8 10 11 12 12 11 10 11 11 11 10 10 10 11 10 11 11 10
-12 -1 0 -1 -4 -4 -5 -7 -7 -9 -8 -7 -8 -4 -4 1 5 7 6 6 3 -4 -7 -8 -10 -9 -9 -7 -3 0 5 8 10 10 11 12 12 11 11 11 10 10 12 12 11 11 11 10 10
-8 2 3 -4 -5 -4 -4 -8 -8 -8 -6 -6 -6 -6 -4 -2 4 5 3 2 -1 -5 -8 -9 -7 -7 -7 -7 -5 -1 5 7 8 9 11 11 12 11 11 11 9 9 11 12 11 10 10 10 10
-3 2 2 -6 -5 -7 -8 -10 -12 -9 -6 -6 -7 -5 -5 -1 3 4 3 1 -4 -7 -8 -6 -4 -4 -5 -6 -6 -3 2 6 7 8 9 10 11 11 9 11 9 7 10 11 11 10 10 10 10
-1 1 -4 -5 -7 -9 -10 -12 -12 -12 -6 -7 -7 -5 -6 -4 0 2 3 3 -3 -7 -8 -5 -3 -3 -3 -4 -5 -4 -0 4 6 7 8 10 11 11 7 9 8 8 8 10 10 10 11 10 10
1 -2 -3 -4 -6 -8 -10 -11 -11 -10 -7 -7 -7 -7 -5 -2 1 2 2 3 -4 -5 -7 -5 -4 -3 -2 -3 -4 -3 -2 2 6 7 8 10 12 9 8 9 8 7 8 9 9 11 10 11 11
3 -1 -2 -5 -6 -7 -9 -11 -11 -13 -8 -8 -8 -6 -7 1 1 1 1 2 1 3 -2 -4 -3 -3 -2 -1 -3 -2 -4 -1 4 7 8 10 12 9 8 8 7 7 8 9 8 10 10 10 11
-2 -3 -2 -3 -3 -4 -7 -8 -10 -13 -13 -13 -11 -7 -4 0 1 2 2 2 2 4 3 0 -1 -3 -2 -1 -2 -1 -1 -1 1 6 9 9 11 10 9 9 7 8 9 9 8 9 8 10 10
-2 -1 -0 -2 -3 -5 -7 -6 -7 -11 -13 -14 -13 -8 3 2 2 4 4 5 4 4 3 2 -1 -3 -2 -1 -0 -1 0 -0 0 4 8 9 9 10 9 8 9 8 8 8 6 7 7 9 10
-4 -1 -1 -3 -4 -4 -5 -5 -4 -5 -12 -12 -13 1 2 3 3 6 8 9 9 7 2 0 -1 -2 -2 -1 0 -1 -1 -2 -2 1 5 9 10 10 10 9 9 7 10 8 8 6 9 9 10
-4 -2 -3 -3 -4 -4 -4 -4 -4 -5 -10 -12 -12 -10 -1 -1 1 4 7 8 8 7 5 -0 -1 1 -0 -1 -0 0 -1 -1 -1 3 4 7 10 11 11 10 8 10 10 9 7 7 8 9 9
-6 -7 -5 -5 -4 -4 -4 -4 -4 -4 -5 -6 -9 -9 -8 -4 -3 1 4 6 9 7 2 -2 -2 1 3 1 -0 1 -0 -1 0 2 4 5 9 11 11 11 10 10 9 7 7 7 7 8 9
-11 -10 -8 -8 -8 -7 -7 -6 -5 -5 -5 -5 -6 -6 -6 -9 -7 -4 -0 4 6 8 5 2 3 -2 1 5 2 2 1 0 1 3 6 6 9 10 11 11 10 10 9 6 7 7 6 8 8
-12 -11 -12 -12 -11 -11 -8 -6 -6 -6 -5 -5 -5 -6 -6 -6 -8 -6 -5 -3 4 7 7 6 4 4 -1 -0 6 3 3 2 4 9 10 10 10 11 11 11 11 11 10 7 6 7 6 7 8
-12 -12 -12 -12 -9 -10 -10 -8 -6 -6 -6 -5 -4 -5 -5 -5 -6 -7 -8 -6 -5 -4 7 8 8 7 5 3 4 8 4 8 8 9 12 12 11 11 10 11 11 11 10 9 6 7 7 7 9
-10 -13 -10 -14 -13 -14 -11 -6 -8 -7 -7 -6 -6 -5 -5 -5 -6 -7 -7 -9 -8 -6 -4 4 7 8 6 5 5 8 9 10 14 11 10 11 12 11 10 11 11 11 11 10 9 8 8 9 9
-11 -10 -12 -13 -15 -16 -15 -14 -16 -9 -7 -6 -6 -5 -5 -5 -5 -6 -7 -7 -9 -8 -5 -2 3 4 7 7 8 6 10 11 14 14 11 10 11 11 11 11 11 11 11 11 10 9 9 9 9
-9 -11 -12 -13 -16 -15 -15 -14 -15 -12 -11 -7 -6 -6 -6 -5 -5 -5 -6 -7 -7 -9 -9 -5 1 3 6 6 8 11 12 12 11 12 12 9 10 12 12 11 11 11 11 11 10 9 9 9 9
-11 -11 -11 -13 -15 -15 -16 -16 -18 -16 -12 -12 -9 -7 -6 -5 -4 -5 -5 -6 -6 -7 -8 -6 -0 5 7 8 8 11 10 13 12 12 13 11 11 13 11 11 11 12 12 11 10 10 10 9 9
-9 -9 -10 -12 -14 -15 -16 -16 -18 -17 -16 -14 -14 -13 -10 -9 -6 -5 -4 -4 -4 -5 -7 -6 -4 3 6 6 7 8 8 11 12 12 13 13 12 13 12 10 11 12 12 11 11 10 10 9 10
-7 -7 -8 -8 -11 -13 -14 -14 -17 -17 -15 -15 -16 -16 -15 -10 -10 -9 -5 -3 -4 -4 -4 -4 -2 3 5 8 10 12 13 14 14 13 13 13 13 14 12 10 10 11 11 11 11 11 10 9 10
-9 -9 -7 -7 -5 -7 -12 -11 -15 -16 -14 -15 -16 -16 -15 -14 -15 -13 -11 -5 -4 -4 -3 -1 -1 3 5 7 10 10 9 13 14 13 13 12 12 12 13 11 11 11 11 11 11 11 11 10 10
-5 -6 -6 -5 -3 -5 -9 -10 -15 -16 -15 -16 -16 -16 -16 -14 -14 -14 -13 -7 -5 -5 -4 -2 -1 1 4 7 8 9 11 13 13 12 12 12 12 12 12 11 11 11 11 11 11 11 11 10 10
-8 -3 -3 -4 -3 -2 -7 -7 -12 -14 -16 -17 -17 -17 -15 -16 -15 -14 -10 -9 -5 -4 -3 1 1 0 5 7 8 11 11 13 12 12 12 12 12 12 12 11 11 10 11 11 11 11 11 10 10
-6 1 3 1 -1 -2 -8 -7 -10 -12 -15 -17 -15 -14 -1 -7 -8 1 3 4 6 4 3 4 5 7 8 8 8 11 12 13 12 12 11 12 12 12 11 11 10 10 10 11 11 11 10 11 11
-4 -2 2 5 0 -3 -9 -6 -10 -13 -14 -16 -15 1 3 6 7 8 8 10 10 10 9 9 9 11 11 11 9 11 12 12 12 12 11 11 12 11 11 11 11 10 11 11 11 10 10 10 10
3 4 1 5 1 0 -5 -7 -10 -16 -14 -14 -13 2 5 9 10 10 10 10 10 10 10 10 9 10 11 12 13 13 11 11 12 13 12 11 11 11 10 10 10 10 10 10 11 10 10 10 10
-1 2 5 1 1 -1 -3 -5 -7 -9 -9 -13 -5 4 9 9 10 10 9 9 8 8 9 9 8 8 11 13 13 12 12 12 12 12 12 11 11 10 10 10 10 10 10 10 10 10 10 10 10
-0 2 4 5 0 -2 -2 -5 -10 -7 -8 -2 -0 8 10 9 9 6 4 7 9 9 9 8 8 9 9 10 10 11 12 12 13 12 11 11 10 10 10 10 11 10 10 10 10 10 10 10 10
-3 -2 2 5 5 2 -4 -6 -13 -11 2 4 5 9 9 9 8 8 8 8 8 8 8 8 8 8 9 9 10 10 12 12 12 11 10 10 9 9 10 10 9 9 9 9 9 9 9 10 9

GFSSGP_850_dewp_129.txt.gz
Dewpoint
-15 -12 -6 -1 -3 -4 -4 -7 -7 -9 -9 -10 -10 -4 -3 2 5 6 7 7 4 -4 -5 -5 -4 -4 -6 -6 -6 -3 2 6 9 10 11 11 10 9 9 8 10 10 10 10 10 11 12 12 12
-16 -7 -3 -2 -4 -5 -10 -6 -6 -9 -9 -10 -10 -4 -2 4 6 7 6 5 -3 -4 -4 -7 -9 -8 -8 -8 -7 -4 -1 3 7 10 11 11 11 10 9 8 8 8 9 10 11 10 10 11 11
-10 -1 2 -2 -4 -5 -8 -9 -9 -10 -10 -11 -9 -7 2 5 5 6 4 0 -4 -4 -6 -11 -10 -10 -12 -11 -8 -4 -0 4 7 10 11 11 11 10 10 9 8 8 8 8 10 10 11 10 10
-6 -0 2 1 -1 -5 -7 -9 -9 -10 -10 -10 -9 -5 -2 -1 2 4 2 -1 -3 -5 -11 -10 -8 -8 -10 -13 -12 -7 -3 3 7 9 10 10 11 10 11 10 8 9 10 10 9 11 10 10 10
-4 1 3 -0 -1 -6 -8 -9 -9 -8 -9 -9 -7 -6 -3 3 4 4 3 -3 -4 -9 -10 -8 -8 -7 -7 -8 -12 -9 -4 2 6 8 9 10 10 10 9 11 9 10 9 10 10 9 10 10 10
-1 -0 2 2 -1 -5 -6 -6 -6 -6 -7 -5 -5 -5 1 4 4 4 0 -6 -7 -12 -9 -8 -7 -6 -6 -6 -7 -12 -7 -2 4 7 8 9 10 9 8 10 10 10 10 10 9 9 10 10 11
2 2 2 -1 0 -0 -2 -4 -5 -6 -5 -4 -5 -6 -3 3 3 4 -1 -4 -8 -10 -9 -7 -5 -4 -4 -4 -5 -8 -8 -3 2 6 8 9 10 10 8 8 9 10 10 9 9 10 10 12 11
3 2 3 2 2 1 -4 -4 -4 -5 -4 -4 -4 -6 -0 3 5 3 -3 -5 -7 -8 -7 -7 -5 -4 -4 -3 -3 -5 -9 -5 1 3 7 9 10 9 7 7 8 8 9 9 9 9 10 12 11
-3 -1 1 0 -1 -2 -3 -3 -3 -3 -3 -4 -4 -4 -5 2 7 2 -2 -4 -6 -6 -6 -6 -6 -5 -4 -3 -2 -3 -6 -5 -1 2 5 8 9 8 7 7 7 7 8 8 8 9 9 10 10
-5 -2 -1 -2 -3 -2 -3 -3 -4 -3 -4 -4 -4 -5 -5 -1 9 9 1 -4 -5 -6 -6 -6 -6 -5 -4 -3 -2 -2 -3 -5 -4 -1 3 6 8 9 8 8 7 8 9 10 9 8 7 9 10
-5 -3 -4 -5 -6 -5 -3 -3 -4 -3 -4 -5 -6 -6 -6 -5 2 11 12 4 -1 -5 -4 -5 -4 -4 -4 -3 -2 -1 -2 -4 -4 -3 1 4 7 9 9 8 8 8 9 9 8 7 6 8 10
-11 -12 -11 -9 -10 -13 -10 -10 -9 -10 -8 -8 -9 -8 -6 -6 -5 3 11 11 11 4 0 -1 -0 -0 -1 -3 -2 -1 -1 -2 -3 -4 -1 3 5 8 9 8 9 7 8 9 7 5 7 8 10
-14 -12 -10 -10 -13 -15 -15 -12 -11 -11 -13 -11 -8 -7 -7 -6 -6 -5 -5 6 10 9 9 4 2 3 3 0 -2 -2 -1 -1 -2 -3 -2 2 3 5 8 9 9 8 7 9 8 5 7 8 9
-9 -8 -9 -12 -14 -17 -14 -12 -12 -16 -15 -12 -10 -8 -8 -7 -6 -6 -5 -5 0 8 9 8 6 5 4 3 -1 -2 -1 -0 -1 -1 -1 1 4 5 6 9 9 9 6 8 8 4 6 8 9
-8 -7 -10 -14 -17 -15 -15 -14 -15 -18 -17 -17 -17 -14 -12 -9 -7 -7 -6 -5 -5 -5 1 8 7 7 5 3 1 -1 -1 0 0 -0 0 1 3 5 6 7 9 10 8 8 9 6 7 7 8
-9 -11 -10 -13 -13 -15 -14 -12 -15 -15 -15 -15 -16 -16 -16 -14 -9 -10 -10 -8 -6 -5 -5 6 9 8 7 5 3 2 1 0 1 1 1 1 3 5 8 7 8 9 9 9 10 7 7 7 7
-10 -8 -8 -9 -12 -11 -12 -10 -13 -12 -14 -14 -16 -16 -17 -16 -16 -12 -9 -8 -7 -6 -5 -2 7 9 7 5 7 6 3 3 2 2 2 2 5 7 9 9 8 9 10 10 10 7 7 7 7
-7 -7 -8 -8 -10 -11 -9 -10 -11 -11 -12 -12 -12 -13 -14 -17 -17 -16 -12 -10 -7 -7 -5 -5 -2 6 8 8 9 9 9 8 6 4 4 4 7 9 10 11 10 9 10 10 11 8 6 7 7
-9 -9 -9 -11 -12 -10 -8 -8 -9 -10 -10 -11 -12 -13 -13 -15 -16 -17 -18 -16 -7 -5 -6 -6 -5 -5 5 10 10 11 10 9 8 7 6 7 8 10 10 11 12 10 9 10 11 10 8 8 7
-9 -8 -9 -10 -9 -7 -6 -6 -8 -9 -10 -11 -11 -12 -14 -15 -16 -17 -19 -18 -11 -12 -8 -6 -5 -5 -5 2 6 9 9 10 9 9 9 10 11 11 11 11 12 11 10 10 11 11 10 9 8
-10 -8 -8 -5 -7 -9 -8 -7 -9 -10 -11 -10 -10 -11 -13 -12 -14 -18 -19 -20 -19 -9 -13 -11 -7 -4 -5 -5 2 11 12 12 11 11 11 10 12 12 13 12 12 12 11 10 10 11 11 11 9
-6 -8 -7 -7 -6 -3 -6 -1 -4 -7 -8 -10 -11 -11 -12 -12 -15 -17 -17 -18 -17 -15 -12 -15 -13 -4 -4 -4 1 5 6 9 6 5 9 11 13 14 13 13 12 12 12 11 10 11 10 10 10
-8 -8 -7 -6 -4 -4 -3 -1 -4 -7 -7 -9 -10 -11 -12 -14 -17 -18 -19 -17 -19 -17 -14 -13 -10 -2 -4 -3 -3 -2 6 9 8 8 9 12 13 14 12 12 12 12 12 11 11 11 11 10 10
-8 -6 -5 -3 -2 1 -2 -1 -3 -5 -7 -8 -10 -11 -12 -14 -16 -17 -18 -18 -17 -9 -5 -8 -6 -0 0 -2 -2 2 7 9 10 9 8 12 13 13 12 11 12 12 12 12 11 10 11 10 10
-7 -5 1 1 -0 -1 -5 0 -2 -5 -7 -10 -9 -11 -12 -13 -14 -14 -16 -17 -17 -7 -7 -6 -4 4 6 4 3 5 8 8 9 8 9 10 12 13 12 11 11 12 11 11 11 11 10 10 10
-5 1 2 3 1 -0 -1 2 -4 -7 -2 0 -2 -10 -1 9 9 8 5 -2 -11 -8 -5 -1 -3 4 12 11 10 11 11 11 10 9 9 10 11 12 11 11 11 11 11 11 11 10 10 9 9
-3 0 -3 3 1 3 -1 -3 -6 -4 4 5 5 6 8 8 8 8 9 9 8 5 1 1 8 11 11 4 7 8 10 9 7 8 11 11 12 12 11 11 11 11 11 11 11 10 9 9 9
-3 -5 0 3 3 2 1 -2 -2 -1 4 3 5 5 4 7 8 7 8 9 10 10 11 12 13 13 12 8 8 9 11 9 10 11 12 12 13 12 11 10 11 10 11 11 10 10 9 9 9
-4 -2 -2 1 2 4 3 -2 -4 3 4 5 5 5 7 6 7 7 6 7 8 9 9 9 10 12 12 12 12 10 12 12 12 12 12 13 13 12 11 11 11 10 10 9 9 9 9 9 9
-6 -5 -3 3 2 1 3 1 2 4 4 5 4 5 6 6 5 5 5 7 8 8 8 8 8 8 9 11 12 12 12 12 12 11 10 12 11 12 12 11 10 10 10 9 9 9 9 9 9

GFSSGP_850_dewp_132.txt.gz
Dewpoint
-13 -15 -8 -1 -7 -7 -8 -10 -7 -9 -9 -10 -10 -8 -0 3 6 7 5 6 4 2 -0 4 5 5 5 4 2 4 5 7 8 10 11 10 9 9 9 9 9 10 10 11 11 11 12 12 12
-15 -8 -5 -2 -8 -11 -16 -8 -7 -9 -9 -9 -10 -7 -4 1 4 6 7 5 5 1 -4 -2 -1 -0 -0 -2 -4 -2 -1 2 7 9 11 11 10 9 9 8 9 9 10 10 11 11 11 12 11
-8 -3 -1 -3 -5 -10 -12 -10 -9 -9 -8 -10 -8 -6 -4 3 5 7 6 6 4 -4 -4 -5 -6 -6 -7 -6 -7 -6 -4 -2 3 7 10 11 10 10 9 8 8 9 10 10 11 10 11 11 10
-6 -2 1 0 -2 -5 -8 -9 -9 -8 -7 -7 -5 -5 -5 -4 4 6 5 5 -2 -4 -5 -9 -12 -10 -8 -5 -6 -6 -4 -0 3 6 9 11 11 10 10 9 9 9 10 10 10 10 10 10 10
-5 1 2 2 1 -3 -7 -8 -7 -6 -6 -5 -5 -4 -4 -2 5 6 5 2 -4 -4 -8 -12 -11 -11 -10 -8 -9 -8 -5 -1 2 6 9 10 10 10 11 10 9 9 9 10 10 11 10 9 10
-1 -0 2 2 0 -4 -5 -5 -6 -4 -5 -5 -4 -4 -5 -4 2 6 2 -1 -4 -6 -12 -10 -8 -8 -8 -10 -11 -10 -7 -4 1 6 8 9 10 11 11 11 10 10 10 10 10 10 10 9 10
-0 1 2 0 -1 0 -1 -4 -4 -5 -4 -4 -4 -4 -5 -5 -3 4 0 -3 -4 -9 -10 -7 -6 -6 -6 -7 -8 -11 -10 -7 -2 4 6 8 10 10 9 11 10 9 10 10 10 9 10 10 10
3 2 4 2 2 1 -2 -3 -3 -4 -4 -4 -4 -4 -4 -6 -5 0 1 -1 -4 -9 -8 -6 -5 -5 -5 -5 -6 -7 -10 -10 -4 0 6 8 10 9 9 10 11 10 10 11 10 9 10 10 10
-2 -0 2 1 0 -1 -3 -3 -4 -5 -4 -4 -5 -5 -6 -6 -5 3 4 -1 1 -6 -7 -5 -4 -4 -4 -4 -4 -5 -7 -10 -7 -1 4 8 9 10 8 9 8 9 10 10 10 10 10 10 11
-5 -1 0 -2 -3 -2 -3 -5 -6 -5 -5 -5 -7 -9 -7 -7 -4 0 5 -1 1 1 0 -2 -3 -2 -3 -3 -3 -4 -5 -7 -9 -6 -1 4 9 8 8 8 8 8 9 10 10 10 9 9 9
-5 -4 -4 -7 -8 -10 -10 -9 -13 -7 -6 -10 -11 -10 -12 -9 -5 -0 5 2 0 2 1 -0 1 -1 -2 -2 -2 -3 -3 -5 -7 -8 -3 2 7 8 8 7 8 8 8 9 9 10 9 9 9
-9 -11 -11 -11 -11 -12 -13 -14 -11 -14 -14 -15 -12 -13 -11 -7 -7 -6 -1 4 3 4 2 0 0 1 1 -1 -1 -1 -2 -3 -5 -8 -5 -1 2 6 8 7 8 8 10 10 9 9 8 8 9
-11 -11 -11 -11 -11 -14 -15 -14 -14 -15 -19 -16 -16 -14 -12 -11 -9 -8 -7 -3 6 6 4 1 2 2 1 0 -0 -1 -1 -2 -3 -5 -5 -1 1 4 7 8 8 8 8 10 8 7 7 7 8
-9 -9 -8 -11 -14 -14 -13 -13 -14 -15 -14 -15 -14 -14 -15 -16 -15 -14 -10 -7 -5 -2 4 6 7 4 2 0 -1 -2 -1 -1 -2 -3 -4 -1 2 3 5 8 8 9 8 9 9 6 6 7 7
-8 -8 -12 -13 -13 -14 -12 -15 -14 -13 -13 -12 -13 -13 -13 -14 -16 -16 -16 -11 -6 -5 -4 1 5 7 8 6 3 1 -2 -1 -1 -2 -2 -2 1 3 4 6 8 9 9 7 8 8 6 7 8
-10 -11 -8 -11 -12 -12 -13 -11 -13 -14 -14 -14 -12 -13 -14 -15 -17 -16 -16 -16 -9 -8 -6 -4 -4 -3 6 7 8 6 1 -2 -0 -0 -1 -1 -0 3 5 5 7 8 9 8 7 9 6 7 8
-9 -8 -8 -9 -12 -13 -13 -13 -16 -14 -12 -12 -11 -12 -12 -16 -19 -22 -18 -16 -18 -10 -11 -7 -5 -5 -3 6 8 9 5 0 -1 1 1 -0 1 2 4 6 6 9 9 9 7 10 7 7 8
-7 -8 -8 -8 -11 -12 -11 -11 -12 -11 -10 -10 -10 -11 -12 -12 -20 -22 -25 -20 -17 -17 -12 -8 -6 -5 -5 6 8 11 8 4 2 1 1 1 1 2 4 7 7 8 9 10 9 10 9 7 8
-9 -8 -8 -10 -12 -10 -9 -8 -9 -11 -11 -10 -10 -10 -10 -11 -13 -15 -16 -24 -19 -17 -17 -12 -8 -6 -4 6 10 11 10 8 6 3 3 3 2 3 5 7 8 8 9 10 10 10 9 8 8
-10 -8 -8 -10 -10 -9 -9 -9 -11 -11 -10 -10 -10 -10 -11 -11 -11 -12 -13 -14 -16 -17 -18 -13 -6 -6 -5 1 2 9 10 9 8 6 5 6 4 4 7 8 9 9 8 10 11 10 10 8 7
-9 -8 -8 -7 -8 -9 -9 -8 -11 -10 -9 -9 -9 -9 -10 -10 -10 -11 -11 -12 -15 -17 -18 -19 -17 -8 -5 -5 4 11 12 12 11 10 7 7 7 6 8 9 10 10 10 8 9 11 11 10 8
-7 -9 -8 -7 -6 -5 -7 -2 -6 -8 -8 -8 -6 -4 -9 -10 -10 -11 -11 -12 -13 -18 -18 -19 -18 -13 -11 -5 -0 3 4 10 9 8 8 8 8 8 9 11 12 12 11 11 9 10 11 11 10
-8 -8 -6 -7 -5 -3 -4 -2 -4 -7 -6 -7 0 2 1 -9 -10 -10 -11 -12 -13 -18 -19 -18 -16 -14 -12 -8 -4 1 4 2 4 9 10 9 9 9 11 12 13 13 12 12 11 11 11 11 11
-9 -6 -6 -3 -2 -0 -3 -2 -4 -4 -6 -3 2 4 4 5 -9 -11 -12 -12 -14 -19 -19 -16 -11 -8 -5 -1 -0 4 8 1 7 10 11 10 9 8 11 13 12 12 12 11 11 10 10 10 10
-7 -2 -1 -1 -3 -3 -7 -2 -2 -3 -6 2 2 3 3 6 6 6 2 -5 -15 -17 -16 -14 -9 -9 -6 -3 4 8 8 5 1 5 10 10 8 7 8 12 13 12 11 11 11 11 11 10 9
-2 -1 -1 -0 -0 -3 -3 1 -1 -7 -3 0 3 2 5 5 7 7 8 9 3 -7 -14 -7 -9 -7 -5 1 9 13 10 10 10 10 10 9 6 5 8 12 12 11 10 11 11 11 11 11 10
-5 -3 -3 -2 -0 2 -1 -4 -7 -0 2 3 4 3 4 7 7 6 6 7 8 9 7 -1 -5 -1 0 6 11 13 12 11 13 12 12 11 8 7 8 12 12 11 11 11 11 11 11 11 10
-5 -6 -2 1 2 1 -2 -3 -0 3 3 3 3 5 5 5 5 5 5 5 7 9 9 10 5 3 2 8 11 12 12 12 11 10 10 9 9 10 11 11 11 11 11 11 11 11 11 11 10
-5 -3 -2 -0 1 2 3 -1 -1 1 1 3 4 4 4 3 3 4 3 3 5 8 9 10 6 8 11 11 8 8 9 9 9 9 8 8 9 11 11 11 12 10 11 10 11 11 11 11 10
-6 -6 -2 1 0 2 3 1 -3 -3 0 1 4 3 2 1 1 1 1 1 3 7 7 9 10 10 9 8 8 6 5 5 6 9 9 10 10 11 11 11 11 10 10 11 11 10 10 9 9

GFSSGP_850_dewp_135.txt.gz
Dewpoint
-13 -15 -8 -4 -10 -10 -12 -12 -8 -8 -8 -8 -8 -8 -6 -4 4 4 4 6 1 1 2 5 7 8 8 9 9 9 9 9 10 9 9 10 9 9 9 9 9 10 9 10 11 12 12 11 11
-16 -9 -5 -5 -12 -14 -16 -11 -8 -9 -8 -8 -7 -6 -5 -2 4 5 6 7 1 1 2 1 4 6 6 7 5 7 8 9 10 10 10 9 9 9 9 9 9 9 9 10 11 12 12 12 11
-10 -8 -4 -5 -7 -14 -14 -12 -9 -8 -8 -5 -5 -6 -4 -3 0 5 8 5 2 2 -1 -4 -2 -0 1 2 3 4 6 8 9 10 10 10 10 9 10 9 9 9 9 10 11 11 11 12 12
-3 -2 -1 -4 -8 -7 -11 -10 -7 -7 -6 -5 -5 -4 -5 -3 -3 3 8 6 4 2 -5 -4 -4 -3 -3 -2 -1 0 0 3 5 8 10 10 10 10 10 9 9 10 10 11 11 10 11 11 11
-4 -1 -1 -1 -2 -3 -5 -7 -7 -4 -5 -4 -4 -3 -3 -5 -5 -1 6 8 4 0 -5 -4 -5 -10 -9 -6 -5 -1 -1 1 3 6 9 10 10 10 10 9 9 10 10 10 10 10 10 11 10
-2 -1 -2 -3 -2 -3 -5 -5 -5 -4 -4 -4 -4 -3 -3 -5 -5 -4 4 6 4 -2 -3 -6 -11 -11 -10 -7 -6 -2 -0 1 4 6 8 9 10 10 11 10 10 10 10 10 10 10 11 10 10
-2 -1 0 -0 -1 -1 -2 -3 -4 -3 -3 -4 -4 -3 -4 -4 -6 -4 0 4 1 -2 -3 -5 -9 -9 -7 -7 -6 -3 -1 1 3 6 7 8 9 10 11 11 10 10 10 10 10 10 9 10 10
1 0 2 1 0 -1 -2 -3 -3 -4 -6 -5 -4 -5 -4 -6 -9 -6 -0 4 -0 -2 -3 -6 -5 -3 -4 -3 -4 -2 -0 1 2 4 6 7 9 10 9 10 11 10 10 10 10 10 10 10 10
-1 1 2 1 1 -0 -3 -6 -5 -8 -5 -8 -8 -6 -9 -10 -11 -8 -0 4 -1 -2 -3 -4 -2 -2 -1 -2 -0 0 2 3 3 4 5 6 8 9 8 9 10 10 10 10 10 9 10 10 10
-3 1 0 -1 -2 -4 -7 -10 -11 -11 -11 -11 -10 -12 -12 -15 -11 -7 -2 4 2 -2 -2 -3 -1 -0 0 0 2 2 3 5 4 2 2 5 8 9 9 8 9 9 10 10 10 10 10 10 10
-5 -4 -4 -7 -7 -10 -13 -15 -15 -16 -18 -17 -13 -11 -12 -12 -12 -6 -7 -5 6 1 -1 -2 -2 -0 0 1 1 1 1 2 4 3 -1 3 6 9 8 8 8 9 10 10 10 10 10 9 10
-10 -10 -11 -11 -11 -11 -13 -14 -14 -14 -16 -14 -14 -15 -14 -15 -16 -13 -11 -5 7 5 -0 -0 -2 -0 0 1 2 2 1 -2 1 2 1 -1 3 7 8 8 7 8 8 9 10 9 9 9 10
-9 -11 -10 -10 -13 -13 -13 -13 -13 -15 -14 -15 -16 -18 -20 -21 -19 -18 -16 -15 -14 -4 7 -0 -1 -0 1 1 3 3 2 -0 -3 -0 1 -0 0 2 6 8 8 8 8 8 9 9 10 9 9
-9 -9 -8 -12 -12 -13 -13 -13 -13 -14 -16 -19 -22 -24 -20 -17 -24 -26 -20 -18 -16 -14 -7 8 4 -2 0 1 1 2 2 1 -1 -4 -3 -0 1 2 4 7 7 8 8 9 10 9 9 8 9
-7 -9 -12 -13 -11 -12 -14 -17 -14 -14 -17 -15 -14 -14 -13 -13 -13 -15 -22 -26 -20 -17 -14 -8 7 3 6 -1 -0 1 2 1 -0 -2 -4 -2 2 3 4 5 7 8 8 8 9 8 8 8 8
-10 -11 -12 -12 -11 -12 -15 -20 -14 -18 -15 -14 -13 -12 -11 -12 -12 -11 -14 -21 -28 -22 -17 -12 -10 2 2 7 4 2 1 1 0 -0 -2 -3 1 3 5 6 6 8 9 8 8 9 8 6 7
-10 -10 -9 -10 -12 -12 -14 -14 -16 -16 -13 -12 -12 -11 -10 -10 -11 -11 -11 -12 -17 -27 -22 -18 -12 -9 -1 6 7 7 6 3 1 0 -0 -2 -1 2 5 6 6 7 8 9 8 7 9 7 6
-8 -8 -9 -9 -12 -12 -11 -11 -14 -14 -12 -11 -11 -10 -10 -9 -8 -9 -10 -10 -11 -16 -26 -21 -16 -15 -8 3 6 9 8 7 6 4 0 -0 -1 1 3 6 7 7 8 9 9 7 9 8 7
-9 -9 -10 -12 -12 -11 -11 -12 -12 -12 -12 -12 -11 -10 -8 -5 -4 -4 -4 -9 -10 -12 -18 -24 -20 -17 -16 -3 4 6 8 9 8 8 3 1 1 1 2 5 7 7 7 8 9 8 8 10 8
-11 -11 -10 -10 -11 -10 -11 -10 -10 -11 -11 -10 -9 -7 -1 -1 -0 2 1 -5 -9 -10 -13 -18 -20 -18 -16 -8 -4 -1 1 9 9 9 6 2 2 1 2 3 5 7 7 9 9 10 9 10 9
-10 -9 -9 -9 -9 -9 -8 -11 -9 -12 -10 -10 -8 -2 -0 1 1 1 2 0 -8 -9 -10 -14 -18 -18 -18 -10 2 4 10 12 11 10 8 5 3 3 3 3 4 7 8 7 9 10 10 10 10
-9 -10 -9 -8 -7 -7 -7 -6 -9 -9 -10 -8 -6 -1 1 2 2 3 4 4 -6 -10 -10 -12 -20 -19 -18 -18 -1 -1 9 9 10 9 7 7 5 4 4 4 5 6 9 9 8 10 10 10 10
-10 -9 -8 -7 -6 -5 -4 -3 -7 -12 -8 -5 -2 0 2 2 4 4 7 4 -7 -10 -10 -13 -20 -20 -18 -17 -7 5 9 3 5 10 9 9 7 6 5 5 5 7 9 10 10 10 11 11 11
-9 -7 -6 -4 -3 -2 -5 -4 -8 -8 -3 1 1 2 3 4 4 5 6 7 2 -10 -11 -13 -16 -18 -18 -17 -7 -1 0 6 9 6 9 7 9 8 7 7 7 9 10 11 11 12 12 11 11
-7 -4 -7 -8 -6 -10 -7 -6 -6 -4 -1 -0 1 2 3 4 4 5 4 4 6 7 -7 -13 -14 -19 -18 -14 -11 -4 4 7 8 2 3 5 10 10 8 8 9 10 11 12 12 11 11 11 12
-4 -2 -4 -4 -4 -6 -5 -2 -6 -3 -4 -2 -0 3 3 3 2 3 2 3 3 7 7 -15 -17 -18 -10 -6 -4 -3 -2 6 9 5 1 5 10 9 8 9 10 11 11 11 11 11 11 11 10
-6 -4 -4 -1 -2 0 -3 -6 -7 -4 -3 -2 1 3 2 1 1 0 1 0 2 5 8 10 -3 -12 -8 -3 -3 -0 4 11 13 10 11 10 9 10 11 10 10 11 11 12 11 10 11 11 10
-6 -7 -3 -2 1 0 -4 -4 -0 -1 -1 -1 2 3 0 -1 -1 -1 -1 -1 -0 2 7 9 10 10 8 8 9 8 11 12 13 13 13 13 12 11 12 12 12 11 12 12 11 10 11 11 11
-4 -4 -4 -2 -1 1 -0 -4 -3 -1 -1 1 2 1 -0 -1 -2 -2 -2 -2 -1 0 4 8 9 11 12 12 13 13 12 13 12 13 13 13 13 13 12 9 9 11 11 11 10 11 11 11 11
-7 -6 -3 -0 0 0 -0 -1 -4 -2 -2 0 1 0 -1 -2 -3 -3 -2 -2 -2 -1 0 4 7 9 10 9 10 10 9 10 11 12 11 10 10 12 11 10 10 10 10 11 10 11 11 11 11

GFSSGP_850_dewp_138.txt.gz
Dewpoint
-12 -17 -9 -3 -8 -13 -13 -13 -12 -9 -9 -9 -7 -7 -7 -6 -1 5 4 9 9 11 3 5 8 9 9 9 9 10 10 10 9 9 11 13 11 11 11 11 10 9 9 9 11 11 11 12 12
-16 -10 -4 -7 -11 -11 -13 -13 -11 -10 -8 -7 -7 -6 -4 -0 -2 1 7 10 7 14 6 6 8 9 9 8 8 10 10 10 10 9 11 12 10 11 11 10 10 10 9 10 12 12 12 11 12
-11 -8 -5 -10 -11 -10 -11 -13 -10 -9 -7 -6 -7 -5 -4 -2 -2 1 4 8 6 14 13 8 7 8 8 7 8 9 9 9 10 10 10 10 10 10 10 10 10 10 10 11 11 12 12 12 12
-1 -4 -6 -6 -8 -10 -13 -11 -9 -8 -7 -4 -5 -5 -4 -2 -2 1 7 8 7 11 14 13 9 6 5 3 3 5 6 8 10 10 10 10 10 10 10 10 10 10 10 11 11 11 11 12 12
-3 -6 -5 -5 -6 -8 -8 -8 -6 -6 -5 -4 -4 -3 -3 -2 -3 3 5 7 7 11 14 7 9 7 3 0 -3 -1 2 4 8 10 10 10 10 10 10 10 9 9 10 10 11 10 11 12 12
-4 -3 -3 -3 -5 -4 -5 -5 -5 -4 -3 -4 -4 -4 -4 -4 -4 3 5 6 6 6 6 5 5 5 4 -1 -3 -4 -1 1 5 9 10 10 10 10 10 10 9 10 10 10 10 10 11 11 11
-3 -2 -2 -2 -2 -3 -3 -3 -3 -3 -4 -5 -5 -5 -4 -3 -6 0 6 4 5 7 3 2 2 2 -1 -1 -1 -0 2 2 5 9 10 11 11 10 10 10 10 9 10 10 10 10 11 11 10
-3 -4 -2 -3 -3 -3 -3 -4 -5 -7 -7 -7 -7 -6 -5 -9 -9 -7 4 9 10 8 3 1 -0 -5 -4 -2 1 3 4 6 5 8 10 11 11 10 10 10 10 9 10 10 10 11 11 10 10
-2 -4 -5 -3 -3 -4 -4 -8 -9 -10 -9 -11 -10 -8 -12 -11 -10 -7 -0 7 12 11 6 1 -2 -6 -6 -4 2 5 6 8 9 9 10 11 11 11 10 10 10 10 10 10 10 10 10 10 10
-6 -6 -7 -3 -3 -5 -9 -11 -14 -16 -17 -18 -17 -14 -13 -13 -12 -8 -4 -0 6 11 12 5 -3 -6 -6 -3 -1 3 7 9 11 11 10 11 14 13 12 9 10 10 10 10 10 10 10 10 11
-7 -10 -6 -8 -10 -11 -13 -17 -19 -20 -22 -19 -15 -14 -14 -14 -15 -13 -11 -7 -5 7 11 9 0 -5 -6 -4 -1 2 4 8 13 13 13 13 14 13 12 10 9 10 9 11 10 10 10 10 11
-10 -9 -9 -12 -13 -14 -17 -16 -17 -19 -20 -16 -14 -14 -16 -18 -18 -16 -14 -12 -9 -5 9 12 10 -1 -4 -4 -3 0 4 5 6 8 12 13 13 13 13 13 12 12 12 12 12 11 11 10 11
-12 -12 -13 -13 -14 -14 -13 -15 -15 -17 -19 -14 -15 -18 -19 -17 -15 -14 -14 -14 -12 -9 -5 7 12 10 -1 -2 -2 -1 1 5 4 6 7 11 13 13 12 12 12 12 12 12 13 13 12 10 11
-13 -14 -14 -13 -14 -15 -14 -16 -18 -17 -14 -16 -19 -19 -18 -16 -13 -13 -12 -13 -13 -13 -10 -7 8 13 11 1 -2 -2 -1 0 2 3 4 7 12 12 11 11 11 12 12 12 13 12 12 12 11
-10 -12 -15 -14 -14 -15 -15 -21 -16 -17 -17 -20 -18 -16 -14 -13 -11 -11 -10 -10 -11 -12 -12 -10 -6 9 13 12 8 -1 -1 -1 0 0 2 4 8 7 5 8 11 12 12 12 12 12 10 12 12
-13 -12 -17 -13 -14 -16 -16 -20 -18 -18 -19 -17 -14 -13 -12 -11 -10 -9 -8 -8 -9 -9 -9 -10 -9 -4 11 13 12 12 4 -1 2 3 0 0 3 8 5 9 9 11 12 12 12 10 9 9 8
-14 -18 -14 -15 -17 -17 -17 -16 -19 -19 -18 -15 -13 -12 -11 -10 -9 -7 -4 -3 -4 -6 -8 -8 -8 -6 -2 11 12 12 12 7 -1 1 -1 -1 -0 3 7 8 8 7 11 12 10 10 9 8 7
-14 -14 -14 -15 -19 -15 -15 -16 -19 -18 -16 -13 -12 -11 -10 -9 -5 -4 -3 -2 -1 -0 -2 -7 -7 -8 -9 -5 11 11 13 12 12 10 2 -1 -0 -0 5 10 7 4 9 12 10 9 10 11 7
-12 -14 -17 -19 -16 -13 -16 -16 -17 -16 -14 -13 -10 -9 -8 -5 -4 -2 -1 0 2 2 1 -3 -7 -6 -6 -3 7 11 12 13 13 11 5 2 0 1 1 10 8 5 5 6 8 8 11 12 12
-15 -16 -17 -16 -16 -13 -13 -12 -14 -14 -13 -11 -10 -7 -4 -3 -2 -1 2 3 4 4 3 1 -5 -8 -7 -8 3 10 11 11 13 13 8 5 3 1 1 4 6 5 5 6 7 10 12 12 12
-16 -14 -14 -14 -14 -13 -10 -16 -14 -14 -13 -10 -5 -3 -3 -1 1 3 3 3 4 5 5 3 -3 -7 -8 -9 -0 9 12 13 13 12 12 8 7 4 2 3 4 3 6 5 6 10 12 12 11
-14 -13 -13 -11 -10 -12 -10 -14 -14 -14 -9 -5 -4 -4 -1 2 3 2 3 4 3 4 6 6 1 -5 -8 -8 -2 8 11 11 11 12 12 9 8 8 2 3 5 3 5 7 5 9 12 12 10
-13 -12 -9 -8 -8 -7 -8 -8 -15 -12 -4 -4 -5 -4 0 1 1 2 1 1 1 3 3 6 -1 -4 -8 -9 -7 7 10 10 6 11 12 12 9 9 5 3 4 3 4 6 7 7 10 12 11
-12 -8 -8 -6 -6 -6 -10 -9 -14 -6 -3 -4 -3 0 2 1 0 1 -0 -1 -0 2 3 6 0 -6 -7 -7 -8 7 10 11 10 11 13 12 10 9 8 5 4 3 3 5 7 8 8 11 11
-10 -8 -12 -11 -9 -12 -10 -8 -10 -5 -5 -4 0 2 1 0 0 -1 -1 -2 -1 -1 1 3 4 -6 -7 -7 -7 8 10 11 13 11 6 12 11 12 9 7 5 4 4 4 6 8 9 10 11
-7 -6 -6 -4 -11 -10 -10 -6 -9 -6 -5 -1 2 1 0 0 -0 -1 -2 -3 -2 -2 -1 2 7 -5 -8 -7 -4 6 10 10 11 11 2 12 12 10 8 9 7 6 6 5 6 9 10 11 11
-6 -5 -6 1 -4 -2 -8 -9 -12 -5 -4 -2 0 1 0 -1 -1 -1 -2 -3 -2 -3 -2 0 7 7 -6 -7 -3 4 10 11 11 12 13 13 13 11 9 8 9 8 7 7 7 10 11 12 11
-6 -7 -1 -2 -0 -4 -10 -9 -5 -2 -2 -2 -0 -1 -1 -0 -1 -2 -3 -4 -2 -2 -2 3 6 8 9 7 6 9 11 12 12 12 13 13 13 13 12 11 12 11 10 9 9 11 12 11 11
-5 -4 -5 -3 -2 -2 -4 -7 -4 -2 -2 -1 -1 -1 -1 -1 -2 -3 -4 -3 -3 -2 -2 0 2 5 10 11 12 12 12 12 13 14 13 13 13 13 13 13 13 13 12 11 10 11 12 12 10
-8 -6 -5 -1 -1 -3 -2 -3 -5 -4 -2 -1 -2 -2 -2 -2 -2 -3 -4 -3 -4 -3 -3 -2 2 4 6 8 12 12 13 12 13 14 13 13 13 13 13 13 13 13 13 10 9 11 11 11 10

GFSSGP_850_dewp_141.txt.gz
Dewpoint
-9 -7 -4 -4 -5 -11 -12 -13 -14 -11 -10 -10 -9 -7 -6 -4 1 3 2 8 11 12 14 7 7 8 9 10 10 9 9 9 9 9 10 12 13 12 11 10 10 9 9 9 10 11 11 12 12
-2 -5 -4 -5 -9 -9 -11 -13 -13 -10 -10 -8 -9 -7 -6 -1 -2 -0 2 6 10 13 15 8 8 9 10 10 10 9 9 9 9 9 10 12 13 11 10 10 10 10 9 10 11 11 12 12 12
-8 -2 -2 -7 -7 -9 -10 -13 -11 -10 -10 -7 -8 -7 -5 -3 -2 1 4 10 12 13 15 14 9 10 11 10 10 9 8 9 9 9 10 13 12 11 11 11 10 10 10 10 11 12 12 12 12
-1 -3 -6 -5 -7 -9 -11 -11 -11 -11 -8 -6 -6 -6 -5 -3 -3 1 5 11 12 13 14 15 11 10 11 11 10 9 7 8 10 9 10 12 11 10 11 11 10 10 10 11 11 11 12 12 12
-4 -3 -4 -4 -5 -8 -9 -9 -8 -7 -6 -4 -5 -5 -4 -3 -4 -4 5 10 14 12 15 15 12 10 11 10 10 8 6 7 9 10 10 10 10 10 10 10 10 10 10 10 11 11 11 12 12
-4 -5 -2 -4 -6 -6 -6 -4 -4 -5 -4 -4 -5 -4 -5 -3 -5 -6 0 10 14 14 15 16 11 10 10 10 9 7 5 6 8 10 9 10 10 11 10 10 10 9 10 10 10 10 11 12 12
-4 -3 -2 -4 -4 -5 -4 -3 -3 -3 -6 -6 -6 -6 -6 -4 -7 -7 -4 8 12 15 16 16 10 10 9 8 6 4 4 6 6 9 10 10 10 11 11 11 10 10 10 10 10 10 10 11 11
-3 -5 -4 -6 -5 -5 -3 -5 -7 -7 -8 -8 -8 -8 -5 -10 -10 -8 -4 5 11 14 15 16 15 7 7 5 2 1 2 6 7 8 11 11 11 11 10 11 10 10 10 9 9 10 10 11 11
-5 -5 -6 -7 -6 -5 -4 -8 -11 -13 -14 -12 -14 -9 -13 -14 -14 -10 -5 -1 4 11 14 15 15 15 12 2 0 1 1 4 8 9 10 11 12 11 11 11 12 10 10 10 10 10 11 11 10
-8 -8 -8 -5 -6 -6 -10 -14 -17 -19 -20 -20 -18 -16 -15 -15 -15 -14 -12 -7 -4 1 11 13 14 14 14 3 -4 -5 2 4 7 9 12 11 14 14 14 13 11 11 11 10 10 10 10 10 11
-12 -10 -9 -10 -11 -13 -16 -20 -21 -22 -21 -21 -16 -15 -15 -16 -17 -17 -15 -14 -10 -6 3 11 13 14 14 13 6 -6 1 11 13 14 13 14 13 13 14 14 12 11 11 10 10 10 10 10 12
-13 -13 -11 -15 -14 -18 -21 -19 -20 -21 -21 -20 -16 -15 -16 -18 -18 -15 -14 -14 -14 -11 -6 0 12 12 14 12 12 11 8 -1 13 13 13 14 13 12 13 13 13 13 12 12 12 12 12 12 13
-15 -17 -14 -17 -17 -18 -17 -19 -18 -19 -20 -18 -16 -17 -20 -19 -17 -13 -12 -11 -10 -10 -10 -7 -0 11 13 14 12 12 12 -0 0 10 14 13 14 13 12 12 12 11 12 12 11 12 13 12 11
-15 -17 -19 -18 -17 -17 -15 -17 -20 -20 -16 -18 -19 -20 -17 -16 -13 -11 -10 -9 -9 -9 -8 -8 -6 -1 12 13 13 12 13 12 -1 -0 6 12 13 13 12 12 12 11 11 11 11 12 12 12 12
-16 -15 -19 -17 -18 -17 -16 -19 -20 -19 -17 -19 -19 -17 -15 -14 -12 -11 -10 -7 -5 -5 -6 -7 -7 -8 -2 12 13 12 12 13 10 -2 -0 4 12 13 12 12 12 11 11 12 11 12 12 12 13
-16 -16 -18 -17 -16 -17 -17 -18 -19 -19 -19 -20 -18 -15 -13 -13 -12 -11 -7 -6 -5 -3 -1 0 -2 -6 -8 -4 11 13 12 12 12 11 -1 -1 7 13 13 12 12 11 12 12 12 12 12 12 12
-15 -17 -16 -16 -17 -18 -18 -17 -20 -20 -20 -19 -16 -14 -12 -11 -10 -6 -4 -4 -2 -0 1 3 3 1 -4 -6 -1 12 12 12 11 12 11 -1 0 11 13 12 12 11 12 12 12 12 13 13 12
-13 -14 -16 -16 -18 -19 -18 -18 -20 -20 -19 -16 -13 -11 -9 -8 -5 -4 -3 -1 2 2 2 3 5 4 2 -3 -6 3 12 13 12 11 12 11 -1 1 11 12 12 12 12 12 13 13 12 12 12
-15 -18 -19 -20 -19 -16 -17 -17 -18 -17 -16 -13 -11 -7 -4 -4 -2 0 2 2 2 2 3 4 5 6 5 1 -3 -5 8 12 13 12 12 12 5 0 4 9 12 11 11 12 12 12 12 12 11
-16 -16 -17 -18 -19 -18 -17 -15 -16 -15 -14 -11 -6 -5 -5 -4 -0 -0 0 1 2 2 3 3 3 5 6 4 -2 -4 -6 10 12 13 12 12 8 2 3 4 11 10 10 12 12 12 12 12 11
-16 -15 -15 -16 -17 -17 -14 -15 -14 -14 -13 -8 -7 -6 -3 1 0 -0 -0 0 1 0 2 2 2 4 5 7 1 -5 -6 1 11 12 12 12 12 9 10 4 10 8 9 10 9 9 10 11 12
-16 -14 -16 -16 -14 -15 -15 -14 -18 -15 -11 -8 -6 -3 1 0 -0 -0 -0 -0 0 -1 0 -0 1 2 4 5 5 -5 -6 -3 8 12 12 13 13 12 10 9 8 6 5 8 6 5 10 12 12
-15 -13 -14 -12 -10 -10 -12 -10 -15 -15 -7 -6 -3 -1 0 -0 -1 -0 -0 -0 -0 -1 -1 -1 0 2 3 4 5 -3 -6 -5 6 9 12 13 13 13 11 12 12 8 4 5 5 5 10 11 11
-15 -13 -11 -10 -8 -6 -10 -9 -16 -8 -5 -4 -1 -1 -1 -1 -0 -1 -1 -1 -1 -2 -2 -1 1 3 4 5 5 -2 -6 -3 7 10 11 13 13 13 13 10 13 11 4 3 3 5 7 9 10
-13 -10 -9 -5 -4 -8 -11 -11 -13 -7 -6 -4 -2 -2 -1 -1 -1 -1 -1 -1 -2 -2 -3 -1 1 3 4 4 2 -3 -5 -8 8 9 10 11 12 13 12 12 12 12 7 4 5 6 7 8 11
-11 -9 -7 -4 -10 -11 -14 -11 -8 -7 -6 -5 -4 -2 -1 -1 -1 -1 -1 -1 -2 -3 -3 -1 -1 1 3 4 -3 -4 -5 -5 6 10 10 10 7 8 13 13 12 11 9 6 7 8 7 9 11
-7 -6 -7 -2 -8 -4 -10 -10 -13 -7 -5 -5 -3 -3 -2 -2 -1 -1 -1 -2 -3 -4 -3 -2 -2 -0 2 4 2 -5 -4 -5 7 10 11 10 7 4 10 13 13 13 11 10 9 8 6 8 11
-8 -7 -2 -2 -1 -6 -14 -12 -8 -3 -3 -3 -2 -2 -2 -2 -2 -2 -2 -3 -3 -4 -3 -2 -2 -1 1 4 4 3 -5 -0 9 10 10 12 5 3 7 13 13 13 11 11 12 10 9 7 9
-6 -6 -7 -5 -6 -3 -6 -8 -5 -4 -3 -2 -2 -2 -2 -2 -2 -2 -2 -3 -4 -3 -3 -2 -2 -2 1 4 7 8 4 5 9 11 11 6 11 11 12 12 13 13 13 13 13 13 13 12 10
-9 -5 -6 -1 -2 -4 -3 -5 -6 -5 -3 -3 -2 -2 -2 -3 -3 -3 -3 -4 -4 -3 -3 -3 -2 -2 -1 2 6 8 10 9 9 10 10 11 12 14 13 12 12 13 12 13 13 13 11 12 13

GFSSGP_850_dewp_144.txt.gz
Dewpoint
-7 -4 -4 -4 -3 -5 -8 -11 -13 -11 -10 -9 -10 -8 -7 -1 0 4 2 6 11 12 14 12 8 9 10 10 10 9 9 8 8 8 8 9 12 12 12 10 9 9 11 10 10 10 11 10 11
-6 -2 -5 -5 -2 -6 -9 -13 -9 -9 -9 -8 -9 -9 -6 -1 -2 1 4 8 12 13 14 12 7 8 9 10 10 10 10 9 8 8 8 9 12 13 11 10 10 9 9 9 10 11 11 12 12
-9 0 -2 -2 -4 -5 -9 -10 -10 -10 -10 -8 -8 -8 -6 -3 -3 0 4 9 12 13 15 12 9 9 10 10 10 10 10 10 9 8 8 9 12 12 11 10 11 10 10 10 11 11 12 12 12
1 -2 -4 -3 -4 -8 -10 -10 -11 -10 -8 -6 -7 -6 -5 -3 -4 -4 1 10 13 13 14 15 13 11 10 11 11 11 10 10 9 8 9 10 13 12 11 10 10 10 10 10 11 12 12 11 12
-3 -3 -1 -2 -4 -7 -9 -9 -8 -7 -7 -5 -5 -5 -5 -4 -5 -5 -4 8 10 14 14 15 14 13 11 11 11 10 10 9 9 8 9 12 13 10 10 10 10 11 10 11 11 11 11 12 12
-4 -5 -2 -2 -6 -7 -6 -4 -4 -5 -4 -5 -5 -5 -4 -5 -7 -7 -5 6 9 14 15 16 15 12 11 11 10 10 8 8 8 8 10 11 12 11 10 10 11 10 10 11 11 11 11 12 12
-3 -3 -2 -3 -4 -5 -2 -3 -4 -4 -5 -7 -7 -6 -6 -9 -11 -9 -5 4 11 14 16 16 13 10 10 10 10 9 7 5 5 7 9 10 11 11 11 11 11 10 10 11 11 11 10 11 12
-4 -4 -3 -5 -5 -5 -3 -5 -8 -8 -9 -10 -8 -9 -6 -13 -14 -12 -6 1 4 10 14 15 16 12 10 9 8 6 4 3 2 4 8 10 11 11 12 11 11 10 10 10 10 11 10 10 11
-7 -4 -4 -6 -4 -4 -6 -8 -14 -14 -16 -15 -13 -10 -14 -15 -15 -14 -12 -8 -4 -1 11 13 16 16 13 10 6 5 2 -0 1 3 5 9 10 11 11 11 11 11 10 10 10 10 11 11 11
-8 -6 -8 -8 -8 -9 -14 -16 -18 -20 -21 -21 -18 -14 -15 -15 -17 -16 -15 -14 -11 -8 -2 12 14 15 15 15 14 7 3 -2 -3 1 5 8 10 12 11 11 11 12 11 10 10 10 11 11 11
-11 -9 -11 -11 -12 -15 -19 -21 -20 -21 -21 -20 -18 -14 -15 -17 -18 -16 -14 -12 -12 -12 -10 -2 8 13 14 15 13 11 3 0 -3 -1 5 7 10 11 13 13 13 12 11 11 10 10 10 11 10
-13 -13 -14 -12 -15 -19 -21 -20 -20 -20 -21 -20 -16 -16 -18 -19 -17 -14 -11 -10 -9 -8 -9 -9 -5 2 13 13 14 13 9 9 5 -3 0 10 11 12 13 12 12 11 11 11 10 10 10 10 11
-15 -14 -16 -15 -17 -19 -18 -19 -20 -20 -18 -18 -17 -19 -19 -16 -15 -11 -9 -9 -7 -6 -6 -7 -8 -7 1 10 13 13 12 13 11 13 5 2 11 11 11 12 12 11 11 11 12 11 10 10 10
-16 -16 -17 -19 -19 -18 -17 -17 -19 -20 -18 -18 -19 -19 -16 -15 -12 -11 -10 -7 -5 -5 -3 -2 -1 -1 -6 -6 0 13 13 12 12 10 13 6 7 11 11 12 13 11 12 11 10 11 12 10 11
-18 -17 -18 -19 -19 -18 -17 -18 -19 -18 -17 -19 -19 -18 -15 -13 -12 -11 -7 -5 -3 -1 0 1 2 2 1 1 -5 -1 13 13 13 11 6 6 5 9 11 12 12 12 11 11 11 10 12 11 11
-15 -17 -15 -18 -17 -17 -18 -17 -18 -19 -19 -20 -19 -16 -13 -11 -10 -5 -1 1 1 2 2 3 2 1 0 -0 0 -1 -1 12 13 13 10 2 2 6 13 13 12 11 11 11 11 10 11 12 11
-16 -13 -16 -14 -16 -17 -18 -17 -19 -20 -20 -20 -16 -13 -10 -7 -4 -1 0 1 1 1 -0 -2 -2 -1 1 4 3 4 -5 1 13 13 13 9 0 4 11 12 12 11 12 11 11 11 11 12 11
-12 -13 -14 -14 -16 -18 -18 -17 -19 -20 -19 -17 -13 -8 -5 -4 -3 -0 0 -0 -2 -3 -4 -4 -5 -3 0 3 3 6 6 -5 7 13 13 13 7 0 6 12 12 11 11 11 11 12 11 11 11
-13 -15 -15 -18 -19 -17 -17 -17 -19 -19 -17 -14 -8 -6 -6 0 0 -0 -0 -0 0 -1 -2 -1 -1 -1 -0 1 2 5 7 4 -4 4 13 13 12 6 1 10 11 12 11 11 12 11 11 12 11
-16 -18 -17 -18 -19 -18 -18 -18 -18 -17 -15 -10 -6 -5 -0 1 -0 -0 -0 -0 0 0 -1 -1 -1 0 -0 0 2 2 6 6 1 -4 6 13 12 11 6 2 10 11 11 11 12 11 12 12 11
-17 -15 -15 -15 -17 -18 -17 -15 -15 -15 -14 -8 -5 -1 -1 -1 -1 -1 -1 -0 -1 -0 -1 -1 -1 -0 0 1 2 3 3 6 5 -1 1 6 13 11 12 4 8 10 11 10 11 11 10 11 11
-13 -16 -15 -16 -16 -14 -15 -12 -14 -13 -12 -6 -2 -1 -2 -1 -1 -1 -1 -1 -1 -1 -1 -1 -1 -1 0 1 2 3 4 5 5 -0 -6 6 7 13 11 10 5 11 10 11 9 11 9 9 11
-14 -13 -13 -16 -14 -12 -12 -11 -13 -14 -10 -4 -2 -2 -2 -1 -1 -1 -1 -1 -1 -1 -2 -2 -1 -2 -0 1 1 3 4 4 5 4 -4 -5 -2 9 13 12 8 11 12 10 8 9 10 7 11
-15 -14 -15 -14 -10 -5 -7 -9 -11 -11 -4 -4 -3 -3 -2 -2 -1 -1 -1 -1 -1 -2 -2 -2 -2 -2 -0 1 2 2 3 5 5 5 -2 1 -1 9 13 13 11 13 12 12 8 6 5 6 10
-14 -12 -8 -5 -2 -3 -10 -9 -10 -5 -5 -4 -4 -3 -2 -2 -1 -1 -2 -1 -1 -2 -2 -2 -2 -2 -1 -0 1 2 4 6 4 4 -3 -1 6 4 9 12 13 13 12 11 9 7 5 6 8
-11 -12 -3 -2 -3 -5 -13 -11 -7 -6 -6 -4 -4 -3 -2 -2 -2 -2 -2 -2 -2 -2 -2 -2 -2 -2 -1 0 2 3 4 5 3 3 -1 -6 9 8 3 11 13 13 12 12 11 9 7 6 7
-10 -7 -9 -2 -6 -8 -12 -13 -8 -6 -4 -3 -3 -3 -2 -2 -2 -2 -2 -2 -4 -3 -3 -2 -3 -1 -2 -1 1 3 2 2 1 -0 -3 -7 1 9 9 1 12 13 14 14 13 12 9 6 7
-11 -8 -4 -7 -5 -6 -10 -11 -4 -3 -3 -3 -3 -3 -2 -2 -2 -2 -2 -3 -5 -3 -3 -2 -2 -2 -3 -2 1 3 4 1 1 -1 -4 -3 0 11 7 6 8 9 12 13 13 13 12 10 8
-9 -4 -6 -5 -2 -3 -5 -8 -5 -3 -2 -2 -3 -3 -2 -3 -2 -2 -3 -5 -6 -3 -2 -2 -1 -2 -2 -1 1 2 5 6 3 2 -0 5 2 8 9 6 3 8 11 12 13 13 13 12 11
-11 -7 -7 0 -6 -6 -4 -4 -4 -2 -3 -3 -2 -3 -3 -3 -3 -3 -3 -6 -6 -6 -3 -2 -2 -3 -2 -2 -1 1 3 5 7 6 4 6 8 7 10 9 7 8 11 12 12 12 12 12 12

GFSSGP_850_dewp_147.txt.gz
Dewpoint
-6 -6 -5 -2 -2 -2 -2 -7 -9 -7 -7 -8 -10 -7 -1 -1 1 6 5 8 12 12 14 14 11 8 9 9 9 8 8 8 8 7 7 8 11 12 11 10 9 8 9 10 10 10 10 9 9
-6 -4 -3 -5 -1 -1 -5 -8 -7 -9 -8 -8 -9 -7 -2 -1 0 1 2 4 13 13 15 14 12 8 8 9 9 9 9 8 8 8 7 8 10 12 11 10 9 9 9 9 10 10 11 11 11
-3 -1 -1 -1 -2 -1 -5 -9 -8 -10 -7 -6 -7 -7 -5 -3 -4 -4 5 3 12 15 14 14 9 8 9 10 10 9 9 9 9 8 8 8 10 13 12 10 9 9 10 9 10 11 11 12 12
-1 -1 -3 -2 -1 -4 -9 -9 -9 -7 -5 -5 -6 -3 -5 -5 -5 -5 -0 2 13 16 15 14 13 9 9 10 10 10 9 8 8 8 8 8 10 13 11 10 10 10 10 9 10 11 11 12 12
-2 -3 -0 0 -1 -3 -7 -7 -7 -5 -4 -5 -5 -3 -9 -9 -8 -5 -3 4 6 14 16 15 15 14 11 11 10 10 9 8 6 6 6 8 10 12 10 11 10 10 10 10 10 11 12 12 12
-2 -4 -2 -1 -2 -2 -3 -4 -4 -3 -5 -5 -5 -5 -12 -14 -10 -8 2 8 5 13 15 16 15 13 13 10 10 9 9 6 4 3 4 7 11 11 10 10 11 10 10 10 10 11 11 12 12
-3 -2 -1 -2 -3 -2 -3 -5 -6 -6 -7 -10 -7 -6 -14 -15 -14 -10 -2 -2 -2 5 12 13 14 13 12 11 10 8 6 4 3 1 2 6 9 10 10 10 10 11 10 10 10 10 11 11 12
-4 -3 -2 -3 -3 -1 -5 -12 -11 -11 -13 -15 -12 -6 -13 -16 -16 -14 -14 -10 -4 4 3 13 15 15 13 11 11 9 5 1 0 -0 1 4 8 9 10 10 11 10 10 10 10 10 10 10 11
-7 -5 -3 -4 -4 -8 -15 -15 -19 -19 -18 -18 -14 -15 -15 -17 -17 -17 -15 -14 -12 -9 2 14 14 14 15 14 12 10 8 3 -0 -1 -1 2 6 8 10 11 11 10 10 10 10 10 10 10 11
-7 -5 -5 -9 -11 -13 -17 -20 -20 -21 -22 -16 -15 -15 -16 -18 -18 -16 -14 -12 -11 -10 -9 -6 9 14 14 13 12 12 12 8 4 0 -1 -0 4 8 9 10 10 10 10 10 10 10 10 11 11
-10 -7 -9 -12 -15 -20 -21 -19 -20 -21 -20 -16 -14 -16 -18 -18 -16 -13 -11 -9 -8 -8 -8 -8 -8 -1 8 13 14 13 11 11 7 5 1 -1 2 6 9 10 11 10 11 11 10 10 10 10 11
-12 -14 -13 -14 -17 -18 -19 -18 -19 -20 -17 -16 -17 -19 -19 -16 -12 -10 -9 -7 -4 -0 -0 -3 -5 -6 -7 -3 8 14 14 13 12 7 5 3 1 4 9 11 11 12 10 10 10 10 10 10 11
-14 -14 -14 -15 -17 -18 -18 -17 -17 -19 -18 -19 -20 -19 -16 -15 -11 -7 -3 -4 -2 -0 1 -0 -2 -3 -2 -2 -4 -0 7 14 13 12 11 9 4 4 8 11 11 11 11 10 10 10 10 9 11
-16 -17 -16 -16 -19 -18 -17 -16 -17 -18 -18 -19 -19 -17 -15 -12 -4 -3 -1 -1 -2 1 1 1 0 -0 -1 -2 -1 -2 -2 6 13 13 12 11 13 7 8 11 12 11 12 8 9 9 10 10 10
-16 -15 -15 -17 -18 -18 -17 -18 -17 -17 -17 -19 -18 -17 -13 -4 -2 -0 -0 -1 -0 -1 -1 -1 0 0 -1 -2 -4 -4 -5 -3 1 10 13 12 11 13 9 9 12 12 12 9 11 10 11 10 10
-12 -14 -14 -16 -17 -16 -18 -16 -16 -18 -19 -19 -18 -12 -6 -0 -0 -0 -1 -1 -2 -3 -5 -5 -4 -5 -6 -6 -6 -7 -9 -7 -4 1 9 14 12 11 12 10 10 11 13 11 11 10 11 11 11
-12 -13 -13 -15 -16 -16 -17 -16 -18 -20 -20 -17 -12 -4 -1 -1 -0 -0 -1 -1 -2 -5 -5 -4 -4 -4 -4 -4 -3 -3 -5 -7 -9 -5 -0 7 14 12 10 12 8 10 13 12 11 11 10 10 11
-12 -12 -13 -12 -15 -16 -15 -16 -18 -19 -19 -13 -5 0 -0 -0 -0 -1 -2 -2 -4 -5 -5 -4 -4 -5 -5 -4 -3 -2 -1 -3 -5 -6 -6 -1 7 14 12 10 11 13 11 11 11 11 11 10 11
-13 -13 -14 -17 -17 -17 -16 -16 -17 -19 -16 -6 -0 0 -0 -1 -2 -4 -4 -4 -5 -5 -4 -3 -2 -3 -3 -3 -2 -1 -1 -1 -1 -1 -2 -2 2 10 14 11 10 14 11 10 12 11 11 11 11
-13 -14 -15 -16 -17 -18 -17 -17 -18 -18 -11 -2 -1 -1 -2 -2 -3 -2 -2 -2 -3 -4 -3 -2 -2 -2 -1 -1 -0 1 1 1 1 0 3 -1 0 1 9 13 10 13 13 9 12 11 11 11 11
-12 -13 -14 -13 -17 -18 -18 -15 -17 -14 -2 -1 -2 -2 -1 -1 -1 -1 -1 -1 -2 -3 -2 -2 -2 -2 -1 -1 -0 1 1 2 2 2 1 5 1 1 -2 10 13 11 14 9 10 12 11 11 11
-11 -13 -13 -15 -15 -13 -14 -10 -14 -11 -0 -1 -2 -2 -2 -2 -2 -1 -1 -2 -3 -4 -3 -1 -2 -1 -2 -1 -1 -1 -0 1 2 3 3 3 5 3 0 0 10 12 14 12 7 11 10 11 11
-12 -11 -11 -12 -13 -13 -12 -10 -12 -12 0 -1 -2 -2 -2 -2 -1 -1 -2 -2 -2 -4 -4 -2 -2 -1 -1 -1 -1 -1 0 1 2 3 3 3 5 3 2 3 7 10 12 13 10 10 12 11 9
-12 -14 -13 -12 -12 -5 -9 -8 -9 -8 -1 -2 -2 -2 -2 -2 -2 -2 -2 -2 -3 -6 -3 -1 -1 -1 -1 -1 -2 -1 -0 1 1 3 3 4 3 4 3 3 8 5 9 12 11 7 10 10 9
-13 -11 -7 -4 -5 -3 -7 -6 -5 -2 -3 -3 -2 -2 -2 -2 -2 -3 -2 -3 -4 -7 -2 -1 -1 -1 -1 -1 -1 -0 -0 0 1 2 3 5 4 4 5 1 4 3 4 12 12 11 9 10 10
-10 -10 -2 1 1 -1 -7 -10 -1 -3 -3 -3 -3 -2 -2 -2 -2 -2 -2 -3 -5 -7 -4 -1 -1 -1 -1 -1 0 -0 0 0 2 3 5 6 4 3 4 2 6 7 4 4 12 12 10 8 10
-8 -8 -10 -2 -4 -2 -8 -3 -3 -3 -2 -3 -2 -2 -2 -2 -2 -2 -3 -4 -6 -7 -6 -2 -2 -2 -1 -0 -1 -0 0 1 2 4 6 5 5 3 3 -0 7 8 3 5 11 11 11 11 9
-12 -8 -3 -3 -2 -4 -6 -5 -2 -0 -1 -2 -2 -2 -2 -2 -3 -3 -3 -4 -6 -7 -6 -4 -2 -3 -2 -1 -1 -1 -1 1 3 4 5 2 2 2 -0 -2 -1 6 8 4 8 11 12 10 11
-9 -3 -4 -3 -0 1 -0 -0 -1 -0 -1 -1 -2 -2 -3 -3 -3 -3 -4 -5 -6 -6 -6 -5 -4 -3 -3 -1 -0 -2 -1 1 3 5 6 3 -0 -1 -4 -3 -3 5 9 9 5 6 11 10 11
-10 -6 -3 0 -2 -1 -1 0 -2 -2 -2 -2 -2 -2 -3 -3 -4 -4 -4 -5 -6 -6 -6 -6 -4 -4 -3 -2 -1 -1 -1 2 3 5 5 7 5 7 4 3 -2 1 6 4 3 7 7 11 12